Regional Weather Roundup
Issued by NWS Charleston, SC

Current Version | Previous Version | Text Only | Print | Product List | Glossary Off
Versions: 1 2 3 4 5 6 7 8 9 10 11 12 13 14 15 16 17 18 19 20 21 22 23 24 25 26 27 28 29 30 31 32 33 34 35 36 37 38 39 40 41 42 43 44 45 46 47 48 49 50
000 ASUS42 KCHS 291927 RWRCHS REGIONAL WEATHER ROUNDUP NATIONAL WEATHER SERVICE CHARLESTON SC 300 PM EDT FRI MAY 29 2015 NOTE: "FAIR" INDICATES FEW OR NO CLOUDS BELOW 12,000 FEET WITH NO SIGNIFICANT WEATHER AND/OR OBSTRUCTIONS TO VISIBILITY. NOT ALL STATIONS ARE QUALITY CONTROLLED BY THE NATIONAL WEATHER SERVICE. USE DATA WITH CAUTION...ESPECIALLY DEWPOINT OBSERVATIONS. SCZ027-030-031-034>040-042>050-292000- ...SOUTHEAST SOUTH CAROLINA... CITY SKY/WX TMP DP RH WIND PRES REMARKS N CHARLESTON PTSUNNY 81 65 58 E16 30.21S WATERFRONT PAR N/A 79 70 74 E9 30.19S MOUNT PLEASANT FAIR 73 70 88 NE5 30.22F JOHNS ISLAND CLEAR 82 70 65 E12 30.20F PINOPOLIS N/A 79 68 69 SE5 30.16S MONCKS CORNER FAIR 79 66 65 SE7 30.21F SUMMERVILLE MOCLDY 84 66 54 E8 30.21F BEAUFORT MCAS PTSUNNY 85 65 51 E10G18 30.19F BEAUFORT ARPT FAIR 82 68 61 E10 30.19S HILTON HEAD IS MOSUNNY 81 70 69 NE12 30.21F WALTERBORO PTCLDY 82 63 51 E7 30.19F ALLENDALE FAIR 86 63 45 VRB5 30.17F ...SOUTHERN MIDLANDS AND PEE DEE... CITY SKY/WX TMP DP RH WIND PRES REMARKS GEORGETOWN NOT AVBL KINGSTREE NOT AVBL ORANGEBURG MOSUNNY 84 60 44 CALM 30.20F BARNWELL FAIR 86 63 45 NE5 30.19F AIKEN FAIR 84 50 30 SE9 30.23F MANNING FAIR 81 3 5 S9G17 30.20F COLUMBIA MOSUNNY 88 49 25 E12G20 30.19F SUMTER SUNNY 88 56 33 S8 30.19F FLORENCE MOSUNNY 88 56 33 VRB6 30.20F MYRTLE BEACH SUNNY 82 66 57 SE12 30.24F N MYRTLE BEACH SUNNY 82 67 60 SE10G18 30.22F $$ GAZ063-065-086>088-099>101-113>116-118-119-134>141-150-292000- ...SOUTHEAST GEORGIA... CITY SKY/WX TMP DP RH WIND PRES REMARKS SAVANNAH ARPT PTSUNNY 83 64 52 E12G21 30.18F HUNTER AAF SUNNY 86 68 54 NE13G21 30.16F FORT STEWART PTSUNNY 87 63 45 E10G17 30.15F STATESBORO MOSUNNY 87 66 49 SE3 30.17F SYLVANIA PTCLDY 90 64 42 E7 30.18F HX 91 CLAXTON FAIR 86 63 45 E8 30.16F ...CSRA...CENTRAL AND FAR SOUTHEAST GEORGIA... CITY SKY/WX TMP DP RH WIND PRES REMARKS THOMSON SUNNY 87 57 36 SE5 30.23F AUGUSTA-BUSH SUNNY 87 58 37 SE13G18 30.18F AUGUSTA-DANIEL SUNNY 87 58 37 SE12 30.20F SWAINSBORO FAIR 88 61 40 E8 30.19F VIDALIA MOSUNNY 84 61 45 SE7 30.17F EASTMAN FAIR 87 60 39 SE9 30.19F HAZLEHURST FAIR 88 60 39 SE6 30.15F ALMA MOSUNNY 86 61 42 SE12 30.15F WAYCROSS MOSUNNY 87 64 45 S10 30.14F JESUP FAIR 90 68 48 E14 30.16F HX 93 BAXLEY FAIR 90 61 37 SE7 30.14F BRUNSWICK N/A 84 64 51 E13 30.18F SAINT SIMONS NOT AVBL $$ SCZ027-028-034-036>038-045-046-048>050-GAZ119-141-292000- ...LAKE AND SUPPLEMENTAL COASTAL OBSERVATIONS... STATION/POSITION TIME TEMP WIND PRES WAVE SWELL AIR SEA DIR/SP/G HT/PER HT/PER/DIR (UTC) (F) (DEG/KT/KT) (MB) (FT/S) (FT/S/D) UPR LAKE MARION NOT AVBL WINYAH BAY 1800 77 70/ 11 1023.0S LAKE MURRAY 1800 82 220/ 3/ 4 1022.4F ACE BASIN NERRS 1800 86 110/ 4 1023.0 FORT PULASKI 1900 77 80 70/ 14/ 16 1022.9F SAPELO ISLAND 1900 83 60/ 13 1022.0S $$ ANZ835-935-AMZ111-154-330-350-352-354-370-450-454-472-292000- ...C-MAN AND BUOY OBSERVATIONS... STATION/POSITION TIME TEMP WIND PRES WAVE SWELL AIR SEA DIR/SP/G HT/PER HT/PER/DIR (UTC) (F) (DEG/KT/KT) (MB) (FT/S) (FT/S/D) BUOY 41004 1850 77 79 80/ 12/ 14 1022.3F 4/ 8 3/ 8 BUOY 41008 1850 75 78 40/ 14/ 17 1022.2F 4/ 8 3/ 90/ 8 FOLLY BEACH CMAN 1900 76 50/ 16/ 18 1023.1F CAPERS NEARSHORE 1808 74 60/ 14/ 19 1023.5F FRIPP NEARSHORE 1800 78 70/ 16/ 17 1022.4F STATION/POSITION TIME TEMP WIND PRES WAVE SWELL AIR SEA DIR/SP/G HT/PER HT/PER/DIR (UTC) (F) (DEG/KT/KT) (MB) (FT/S) (FT/S/D) 5E ST. MARYS GA 1821 80 N/A 3/11 2/100/11 FRYING PAN BUOY 1850 76 76 50/ 12/ 14 1023.8F 4/ 8 3/110/ 8 BUOY 41025 1850 77 79 130/ 10/ 12 1024.1F 3/ 8 3/100/ 8 CAPE LOOKOUT NC 1900 76 120/ 5/ 7 1023.7F BUOY 41002 1850 75 75 80/ 14/ 17 1022.1F 6/ 9 5/ 80/ 9 BUOY 41010 1820 78 81 40/ 14/ 16 1020.2F ST AUGUSTINE FL 1900 77 81 50/ 10/ 11 1022.1F $$

USA.gov is the U.S. government's official web portal to all federal, state and local government web resources and services.